"startDT [UTC]","vpos","CH4 [ppm]","stdev(CH4) [ppm]","CO2 [ppm]","stdev(CO2) [ppm]","H2O [ppm]","stdev(H2O)","p_LGR [torr]","T_LGR [C]","mt1_LGR [us]","mt2_LGR [us]","T_ECpre [C]","T_EC1 [C]","T_EC2 [C]","p_inlet [hPa]","p_in [hPa]","p_out [hPa]","T_inlet [C]","RH_inlet [%]","dwpt_inlet [C]","T_vent [C]","RH_vent [%]","dwpt_vent [C]","flow_vent [l min-1]","flow_inlet [l min-1]","dwpt_sample [C]","T_room [C]"
2012-03-23 00:00:00,0.0,1.9029,0.0011,403.66,0.56,93.7,30.9,138.10,28.48,24.61,36.33,0.04,-272.73,-272.74,-49,561,-925,22.7,2.3,-27.7,22.9,2.4,-27.1,5.73,2.46,-27.2,28.4
2012-03-23 00:01:00,0.0,1.9028,0.0009,403.70,0.36,90.7,30.4,138.10,28.49,24.61,36.33,0.04,-272.73,-272.73,-49,562,-925,22.8,2.3,-27.6,22.9,2.4,-27.1,5.73,2.27,-27.2,28.4
2012-03-23 00:02:00,0.0,1.9030,0.0009,404.03,0.23,94.5,33.9,138.10,28.50,24.61,36.33,0.04,-272.73,-272.74,-49,562,-925,22.8,2.3,-27.6,22.9,2.4,-27.2,5.73,2.46,-27.2,28.4
2012-03-23 00:03:00,0.0,1.9030,0.0010,404.17,0.21,78.4,34.1,138.10,28.51,24.61,36.33,0.04,-272.74,-272.74,-49,562,-925,22.8,2.3,-27.6,23.0,2.4,-27.2,5.73,2.27,-27.2,28.5
2012-03-23 00:04:00,0.0,1.9030,0.0010,404.16,0.20,93.8,35.7,138.10,28.52,24.61,36.33,0.04,-272.73,-272.74,-49,562,-925,22.9,2.3,-27.6,23.0,2.3,-27.2,5.73,2.45,-27.1,28.5
2012-03-23 00:05:00,0.0,1.9031,0.0009,403.88,0.31,88.1,33.5,138.10,28.53,24.61,36.33,0.04,-272.73,-272.74,-49,562,-925,22.9,2.3,-27.6,23.0,2.3,-27.2,5.73,2.27,-27.1,28.5
2012-03-23 00:06:00,0.0,1.9033,0.0007,403.31,0.24,94.8,34.4,138.10,28.54,24.61,36.33,0.04,-272.74,-272.73,-49,562,-925,22.9,2.3,-27.6,23.1,2.3,-27.2,5.73,2.46,-27.1,28.5
2012-03-23 00:07:00,0.0,1.9031,0.0010,403.56,0.28,99.0,33.4,138.10,28.55,24.61,36.33,0.04,-272.73,-272.73,-49,562,-925,22.9,2.3,-27.6,23.1,2.3,-27.2,5.73,2.26,-27.1,28.3
2012-03-23 00:08:00,0.0,1.9031,0.0009,403.87,0.24,85.2,28.4,138.10,28.55,24.61,36.33,0.04,-272.73,-272.73,-49,563,-925,22.9,2.3,-27.6,23.1,2.3,-27.2,5.73,2.38,-27.2,27.5
2012-03-23 00:09:00,0.0,1.9025,0.0008,404.34,0.35,74.7,33.0,138.11,28.55,24.61,36.33,0.04,-272.73,-272.73,-49,563,-925,22.9,2.3,-27.6,23.0,2.3,-27.2,5.73,2.43,-27.4,27.1
2012-03-23 00:10:00,0.0,1.9016,0.0009,403.37,0.21,53.1,33.6,138.12,28.54,24.61,36.33,0.04,-272.74,-272.73,-50,563,-925,22.9,2.3,-27.6,23.0,2.3,-27.3,5.73,2.40,-27.7,26.6
2012-03-23 00:11:00,0.0,1.9010,0.0009,403.68,0.26,32.5,25.7,138.12,28.52,24.61,36.33,0.04,-272.73,-272.73,-50,562,-926,22.8,2.3,-27.6,22.9,2.3,-27.3,5.73,2.38,-27.9,26.2
2012-03-23 00:12:00,0.0,1.9007,0.0010,403.36,0.29,25.7,26.1,138.13,28.51,24.60,36.32,0.04,-272.73,-272.74,-50,563,-926,22.7,2.3,-27.7,22.8,2.3,-27.3,5.73,2.38,-28.1,25.9
2012-03-23 00:13:00,0.0,1.8998,0.0010,403.22,0.22,11.6,17.5,138.14,28.48,24.61,36.32,0.04,-272.73,-272.74,-50,562,-925,22.7,2.3,-27.7,22.7,2.3,-27.4,5.73,2.39,-28.3,25.7
2012-03-23 00:14:00,0.0,1.8998,0.0010,403.47,0.22,4.2,11.6,138.14,28.45,24.61,36.32,0.04,-272.73,-272.74,-50,561,-925,22.6,2.3,-27.7,22.6,2.4,-27.4,5.73,2.39,-28.5,25.4
2012-03-23 00:15:00,0.0,1.9000,0.0008,403.73,0.23,1.5,7.2,138.15,28.42,24.61,36.32,0.04,-272.73,-272.73,-50,561,-926,22.6,2.3,-27.7,22.6,2.4,-27.4,5.73,2.39,-28.6,25.2
2012-03-23 00:16:00,0.0,1.9016,0.0014,403.45,0.20,-0.8,1.4,138.15,28.39,24.61,36.32,0.04,-272.74,-272.74,-50,560,-925,22.5,2.3,-27.7,22.5,2.4,-27.4,5.73,2.35,-28.8,25.5
2012-03-23 00:17:00,0.0,1.9027,0.0011,403.31,0.19,-0.3,4.1,138.15,28.36,24.61,36.31,0.04,-272.73,-272.74,-50,560,-925,22.4,2.3,-27.7,22.5,2.4,-27.4,5.73,2.26,-28.8,25.9
2012-03-23 00:18:00,0.0,1.9034,0.0009,403.04,0.24,0.0,4.7,138.15,28.34,24.61,36.32,0.04,-272.74,-272.73,-50,560,-925,22.4,2.3,-27.7,22.5,2.4,-27.4,5.73,2.46,-28.7,26.4
2012-03-23 00:19:00,0.0,1.9010,0.0010,402.21,0.34,0.9,6.1,138.14,28.32,24.60,36.32,0.04,-272.74,-272.74,-50,560,-925,22.4,2.3,-27.7,22.5,2.4,-27.4,5.73,2.30,-28.6,26.6
2012-03-23 00:20:00,0.0,1.8994,0.0007,401.42,0.24,-0.3,3.9,138.14,28.31,24.60,36.32,0.04,-272.74,-272.73,-50,559,-925,22.4,2.3,-27.7,22.5,2.4,-27.4,5.73,2.45,-28.6,26.8
2012-03-23 00:21:00,0.0,1.8996,0.0008,400.97,0.23,3.9,13.6,138.14,28.30,24.60,36.32,0.04,-272.74,-272.73,-50,560,-925,22.4,2.3,-27.7,22.5,2.4,-27.4,5.73,2.27,-28.5,27.0
2012-03-23 00:22:00,0.0,1.8990,0.0010,400.63,0.22,3.5,8.9,138.13,28.30,24.60,36.32,0.04,-272.73,-272.73,-49,559,-924,22.4,2.3,-27.8,22.5,2.4,-27.4,5.73,2.48,-28.4,27.1
2012-03-23 00:23:00,0.0,1.8989,0.0009,400.93,0.26,2.9,8.4,138.13,28.30,24.61,36.32,0.04,-272.73,-272.73,-50,560,-925,22.4,2.3,-27.9,22.5,2.4,-27.4,5.73,2.27,-28.3,27.1
2012-03-23 00:24:00,0.0,1.8993,0.0008,401.02,0.27,9.1,17.7,138.13,28.30,24.60,36.32,0.04,-272.73,-272.74,-49,560,-924,22.4,2.3,-27.8,22.5,2.4,-27.4,5.73,2.46,-28.3,27.2
2012-03-23 00:25:00,0.0,1.8991,0.0009,400.58,0.21,10.2,19.0,138.13,28.30,24.60,36.33,0.04,-272.73,-272.73,-50,559,-924,22.4,2.3,-27.8,22.5,2.4,-27.4,5.73,2.30,-28.2,27.3
2012-03-23 00:26:00,0.0,1.8996,0.0010,400.82,0.26,12.8,19.5,138.12,28.31,24.60,36.32,0.04,-272.73,-272.74,-50,559,-924,22.4,2.3,-27.8,22.6,2.3,-27.5,5.73,2.46,-28.1,27.3
2012-03-23 00:27:00,0.0,1.8998,0.0011,401.40,0.26,20.6,23.2,138.12,28.31,24.61,36.31,0.04,-272.74,-272.74,-48,558,-925,22.4,2.3,-27.9,22.5,2.3,-27.5,5.73,2.26,-28.1,27.3
2012-03-23 00:28:00,0.0,1.9001,0.0008,401.16,0.18,23.3,22.5,138.12,28.32,24.60,36.32,0.04,-272.73,-272.73,-49,559,-925,22.4,2.3,-27.8,22.6,2.3,-27.5,5.73,2.49,-28.0,27.4
2012-03-23 00:29:00,0.0,1.8999,0.0010,401.10,0.23,20.0,22.7,138.12,28.32,24.60,36.32,0.04,-272.73,-272.74,-49,559,-925,22.4,2.3,-27.8,22.6,2.3,-27.5,5.73,2.28,-28.0,27.4
2012-03-23 00:30:00,0.0,1.8997,0.0008,401.76,0.28,29.9,32.7,138.12,28.33,24.60,36.32,0.04,-272.74,-272.74,-50,560,-924,22.4,2.3,-27.8,22.6,2.3,-27.4,5.73,2.42,-27.9,27.4
2012-03-23 00:31:00,0.0,1.8999,0.0008,401.95,0.17,36.6,28.3,138.12,28.33,24.61,36.32,0.04,-272.73,-272.74,-49,559,-924,22.4,2.3,-27.8,22.6,2.3,-27.4,5.73,2.38,-27.9,27.4
2012-03-23 00:32:00,0.0,1.9000,0.0008,401.86,0.21,35.3,28.2,138.12,28.34,24.61,36.32,0.04,-272.73,-272.73,-49,559,-924,22.5,2.3,-27.8,22.6,2.3,-27.4,5.73,2.31,-27.8,27.5
2012-03-23 00:33:00,0.0,1.9001,0.0010,402.49,0.39,35.6,29.7,138.12,28.35,24.61,36.32,0.04,-272.74,-272.74,-50,559,-925,22.5,2.3,-27.8,22.7,2.3,-27.4,5.73,2.47,-27.8,27.6
2012-03-23 00:34:00,0.0,1.9007,0.0008,402.97,0.28,41.0,28.1,138.11,28.36,24.61,36.33,0.04,-272.73,-272.73,-48,559,-924,22.5,2.3,-27.8,22.7,2.3,-27.4,5.73,2.26,-27.7,27.6
2012-03-23 00:35:00,0.0,1.9008,0.0008,403.65,0.25,42.3,29.1,138.11,28.37,24.61,36.32,0.04,-272.73,-272.73,-49,559,-925,22.5,2.3,-27.8,22.7,2.3,-27.4,5.73,2.49,-27.7,27.6
2012-03-23 00:36:00,0.0,1.9009,0.0009,403.06,0.25,47.9,26.7,138.11,28.37,24.60,36.33,0.04,-272.74,-272.73,-50,560,-924,22.5,2.3,-27.8,22.7,2.3,-27.4,5.73,2.28,-27.7,27.6
2012-03-23 00:37:00,0.0,1.9013,0.0011,403.32,0.23,55.7,34.4,138.11,28.38,24.60,36.32,0.04,-272.73,-272.74,-49,559,-924,22.6,2.3,-27.7,22.7,2.3,-27.3,5.73,2.43,-27.6,27.6
2012-03-23 00:38:00,0.0,1.9014,0.0010,402.97,0.27,56.4,29.8,138.11,28.39,24.60,36.32,0.04,-272.73,-272.73,-50,559,-924,22.6,2.3,-27.8,22.7,2.3,-27.3,5.73,2.36,-27.6,27.7
2012-03-23 00:39:00,0.0,1.9015,0.0009,403.26,0.26,54.0,30.5,138.11,28.39,24.61,36.32,0.04,-272.73,-272.73,-49,560,-924,22.6,2.3,-27.8,22.8,2.3,-27.3,5.73,2.34,-27.6,27.7
2012-03-23 00:40:00,0.0,1.9021,0.0010,403.36,0.27,58.1,32.3,138.11,28.40,24.60,36.33,0.04,-272.74,-272.74,-49,559,-924,22.6,2.3,-27.8,22.8,2.3,-27.3,5.73,2.42,-27.5,27.7
2012-03-23 00:41:00,0.0,1.9019,0.0010,403.32,0.20,66.4,37.6,138.11,28.41,24.61,36.32,0.04,-272.73,-272.74,-50,560,-924,22.7,2.3,-27.8,22.8,2.3,-27.3,5.73,2.30,-27.5,27.8
2012-03-23 00:42:00,0.0,1.9018,0.0009,403.30,0.21,66.2,28.5,138.11,28.42,24.61,36.33,0.04,-272.73,-272.73,-49,560,-924,22.6,2.3,-27.8,22.8,2.3,-27.3,5.73,2.46,-27.5,27.9
2012-03-23 00:43:00,0.0,1.9024,0.0008,402.96,0.20,63.2,32.0,138.11,28.43,24.61,36.33,0.04,-272.74,-272.74,-50,560,-924,22.7,2.3,-27.8,22.9,2.3,-27.3,5.73,2.26,-27.4,27.9
2012-03-23 00:44:00,0.0,1.9024,0.0010,403.12,0.32,79.2,29.7,138.11,28.44,24.61,36.33,0.04,-272.74,-272.74,-49,560,-925,22.7,2.3,-27.8,22.9,2.3,-27.3,5.73,2.47,-27.4,28.0
2012-03-23 00:45:00,0.0,1.9026,0.0009,403.78,0.17,71.3,32.3,138.11,28.45,24.61,36.33,0.04,-272.74,-272.73,-49,560,-924,22.7,2.3,-27.7,22.9,2.3,-27.2,5.73,2.26,-27.4,28.0
2012-03-23 00:46:00,0.0,1.9025,0.0008,403.65,0.44,74.6,32.6,138.10,28.46,24.61,36.33,0.04,-272.73,-272.73,-49,561,-924,22.7,2.3,-27.8,22.9,2.3,-27.4,5.73,2.48,-27.4,28.0
2012-03-23 00:47:00,0.0,1.9027,0.0009,403.41,0.18,78.2,32.0,138.11,28.46,24.61,36.33,0.04,-272.74,-272.74,-49,560,-925,22.8,2.2,-27.8,22.9,2.3,-27.4,5.73,2.25,-27.3,27.9
2012-03-23 00:48:00,0.0,1.9032,0.0009,403.37,0.21,78.1,37.2,138.10,28.47,24.61,36.33,0.04,-272.73,-272.74,-50,560,-924,22.8,2.2,-27.9,22.9,2.3,-27.4,5.73,2.48,-27.3,28.0
2012-03-23 00:49:00,0.0,1.9026,0.0011,402.67,0.56,82.9,29.3,138.10,28.48,24.61,36.33,0.04,-272.74,-272.73,-49,561,-925,22.8,2.2,-27.8,23.0,2.3,-27.4,5.73,2.25,-27.3,28.0
2012-03-23 00:50:00,0.0,1.9033,0.0009,402.56,0.28,78.8,32.3,138.10,28.49,24.61,36.33,0.04,-272.74,-272.73,-50,561,-924,22.8,2.3,-27.7,23.0,2.3,-27.3,5.73,2.48,-27.2,28.1
2012-03-23 00:51:00,0.0,1.9031,0.0008,402.32,0.35,89.0,35.9,138.10,28.50,24.61,36.34,0.04,-272.74,-272.73,-49,561,-925,22.9,2.2,-27.8,23.0,2.3,-27.3,5.73,2.25,-27.2,28.2
2012-03-23 00:52:00,0.0,1.9031,0.0008,402.17,0.20,90.1,32.0,138.10,28.51,24.61,36.33,0.04,-272.74,-272.73,-49,561,-925,22.9,2.2,-27.8,23.0,2.3,-27.3,5.73,2.48,-27.2,28.2
2012-03-23 00:53:00,0.0,1.9034,0.0008,402.04,0.24,97.5,39.4,138.10,28.52,24.61,36.33,0.04,-272.74,-272.74,-49,561,-925,22.9,2.2,-27.8,23.1,2.3,-27.3,5.73,2.25,-27.1,28.2
2012-03-23 00:54:00,0.0,1.9034,0.0010,401.53,0.24,92.0,32.9,138.10,28.53,24.61,36.32,0.04,-272.73,-272.74,-49,561,-925,22.9,2.2,-27.8,23.1,2.3,-27.3,5.73,2.47,-27.1,28.3
2012-03-23 00:55:00,0.0,1.9035,0.0008,401.00,0.23,89.3,31.9,138.10,28.54,24.61,36.34,0.04,-272.73,-272.73,-49,562,-925,22.9,2.2,-27.8,23.1,2.3,-27.3,5.73,2.25,-27.1,28.4
2012-03-23 00:56:00,0.0,1.9035,0.0009,401.06,0.20,91.6,34.0,138.10,28.55,24.61,36.33,0.04,-272.73,-272.73,-49,562,-925,23.0,2.2,-27.7,23.1,2.3,-27.2,5.73,2.47,-27.1,28.4
2012-03-23 00:57:00,0.0,1.9038,0.0010,401.02,0.20,97.3,34.0,138.10,28.56,24.61,36.33,0.04,-272.74,-272.74,-50,562,-925,23.0,2.2,-27.7,23.1,2.3,-27.2,5.73,2.25,-27.1,28.4
2012-03-23 00:58:00,0.0,1.9037,0.0008,400.98,0.24,89.4,35.1,138.10,28.57,24.61,36.33,0.04,-272.74,-272.73,-49,562,-925,23.0,2.2,-27.7,23.1,2.3,-27.3,5.73,2.46,-27.1,27.6
2012-03-23 00:59:00,0.0,1.9032,0.0010,401.06,0.21,84.9,38.1,138.11,28.57,24.61,36.32,0.04,-272.73,-272.73,-49,563,-925,23.0,2.2,-27.7,23.1,2.3,-27.3,5.73,2.41,-27.3,27.1
2012-03-23 01:00:00,0.0,1.9026,0.0009,400.90,0.22,68.4,33.8,138.11,28.56,24.61,36.33,0.04,-272.73,-272.73,-50,563,-926,23.0,2.2,-27.7,23.1,2.3,-27.3,5.73,2.36,-27.5,26.7
2012-03-23 01:01:00,0.0,1.9020,0.0007,400.79,0.17,41.4,29.7,138.12,28.55,24.61,36.33,0.04,-272.74,-272.74,-50,562,-926,22.9,2.2,-27.8,23.0,2.3,-27.4,5.73,2.36,-27.7,26.4
2012-03-23 01:02:00,0.0,1.9014,0.0010,400.70,0.21,33.1,35.1,138.13,28.54,24.61,36.33,0.04,-272.73,-272.74,-50,562,-926,22.9,2.2,-27.8,22.8,2.3,-27.5,5.73,2.37,-27.9,26.2
2012-03-23 01:03:00,0.0,1.9007,0.0008,400.86,0.19,25.3,27.1,138.13,28.51,24.61,36.32,0.25,-270.86,-272.57,-50,562,-925,22.8,2.2,-27.8,22.8,2.3,-27.4,5.42,2.47,-32.2,26.0
2012-03-23 01:04:00,0.0,1.9008,0.0008,400.79,0.20,12.5,20.6,138.14,28.49,24.61,36.32,0.04,-272.74,-272.73,-50,562,-926,22.8,2.2,-27.9,22.8,2.3,-27.5,5.73,2.35,-28.3,25.7
2012-03-23 01:05:00,0.0,1.9003,0.0009,400.90,0.19,1.3,8.4,138.14,28.46,24.61,36.32,0.04,-272.73,-272.74,-50,561,-926,22.7,2.2,-27.9,22.7,2.3,-27.5,5.73,2.35,-28.4,25.6
2012-03-23 01:06:00,0.0,1.9004,0.0008,400.92,0.24,0.9,6.5,138.15,28.43,24.61,36.32,0.04,-272.73,-272.74,-50,561,-925,22.7,2.2,-27.9,22.6,2.3,-27.6,5.73,2.34,-28.6,25.4
2012-03-23 01:07:00,0.0,1.9000,0.0010,400.86,0.18,0.2,5.2,138.15,28.40,24.61,36.32,0.04,-272.74,-272.73,-50,561,-926,22.6,2.2,-28.0,22.6,2.3,-27.6,5.73,2.35,-28.6,25.9
2012-03-23 01:08:00,0.0,1.8999,0.0009,400.84,0.22,2.6,11.2,138.15,28.38,24.61,36.32,0.04,-272.73,-272.74,-51,560,-925,22.6,2.3,-27.8,22.6,2.3,-27.6,5.73,2.49,-28.6,26.4
2012-03-23 01:09:00,0.0,1.9003,0.0007,400.74,0.22,2.6,9.8,138.14,28.36,24.60,36.32,0.04,-272.73,-272.73,-50,560,-925,22.6,2.3,-27.8,22.6,2.3,-27.6,5.73,2.26,-28.5,26.6
2012-03-23 01:10:00,0.0,1.9000,0.0007,400.59,0.16,2.4,8.8,138.14,28.35,24.61,36.32,0.04,-272.74,-272.74,-50,560,-925,22.6,2.3,-27.8,22.6,2.3,-27.6,5.73,2.48,-28.5,26.8
2012-03-23 01:11:00,0.0,1.9002,0.0010,400.63,0.22,6.4,16.9,138.14,28.34,24.61,36.32,0.04,-272.73,-272.74,-50,560,-925,22.6,2.2,-27.9,22.6,2.3,-27.6,5.73,2.26,-28.4,27.0
2012-03-23 01:12:00,0.0,1.9001,0.0011,400.52,0.22,8.5,15.9,138.13,28.34,24.61,36.32,0.04,-272.72,-272.74,-50,560,-925,22.6,2.2,-27.9,22.7,2.3,-27.5,5.73,2.47,-28.3,27.1
2012-03-23 01:13:00,0.0,1.9000,0.0008,400.53,0.21,9.3,18.2,138.13,28.34,24.61,36.32,0.04,-272.73,-272.73,-50,560,-925,22.6,2.2,-28.0,22.7,2.3,-27.5,5.73,2.30,-28.2,27.2
2012-03-23 01:14:00,0.0,1.9003,0.0009,400.38,0.20,18.3,21.2,138.13,28.34,24.60,36.32,0.04,-272.74,-272.73,-50,560,-925,22.6,2.2,-28.0,22.7,2.3,-27.5,5.73,2.45,-28.1,27.3
2012-03-23 01:15:00,0.0,1.9002,0.0010,400.37,0.20,20.1,22.1,138.12,28.34,24.61,36.32,0.04,-272.74,-272.73,-50,560,-925,22.6,2.2,-27.9,22.7,2.3,-27.5,5.73,2.29,-28.1,27.3
2012-03-23 01:16:00,0.0,1.9003,0.0009,400.25,0.18,27.5,27.7,138.12,28.34,24.60,36.32,0.04,-272.74,-272.73,-49,559,-925,22.6,2.2,-28.0,22.7,2.3,-27.5,5.73,2.47,-28.0,27.4
2012-03-23 01:17:00,0.0,1.9003,0.0010,400.17,0.22,26.1,28.9,138.12,28.35,24.61,36.33,0.04,-272.74,-272.74,-50,559,-925,22.6,2.2,-28.0,22.7,2.3,-27.5,5.73,2.26,-27.9,27.4
2012-03-23 01:18:00,0.0,1.9005,0.0009,400.18,0.18,29.1,28.6,138.12,28.36,24.60,36.33,0.04,-272.73,-272.74,-49,560,-925,22.6,2.2,-28.0,22.7,2.3,-27.5,5.73,2.48,-27.9,27.5
2012-03-23 01:19:00,0.0,1.9009,0.0011,400.22,0.19,36.9,24.6,138.12,28.37,24.60,36.33,0.04,-272.73,-272.73,-49,560,-924,22.6,2.2,-27.9,22.8,2.3,-27.5,5.73,2.27,-27.8,27.5
2012-03-23 01:20:00,0.0,1.9010,0.0009,400.24,0.17,39.6,32.7,138.12,28.37,24.60,36.32,0.04,-272.74,-272.74,-50,560,-925,22.7,2.2,-27.9,22.8,2.3,-27.5,5.73,2.45,-27.8,27.6
2012-03-23 01:21:00,0.0,1.9014,0.0009,400.19,0.21,47.2,29.0,138.11,28.38,24.61,36.33,0.04,-272.74,-272.73,-49,560,-925,22.7,2.2,-27.9,22.8,2.3,-27.4,5.73,2.34,-27.7,27.6
2012-03-23 01:22:00,0.0,1.9019,0.0010,400.20,0.22,49.2,30.7,138.11,28.39,24.61,36.33,0.04,-272.73,-272.73,-50,560,-925,22.7,2.2,-27.9,22.8,2.3,-27.4,5.73,2.36,-27.7,27.7
2012-03-23 01:23:00,0.0,1.9019,0.0009,400.22,0.18,51.2,31.1,138.11,28.40,24.61,36.33,0.04,-272.73,-272.74,-50,560,-925,22.7,2.2,-27.8,22.8,2.3,-27.5,5.73,2.42,-27.6,27.7
2012-03-23 01:24:00,0.0,1.9024,0.0011,400.22,0.21,55.6,29.8,138.11,28.42,24.61,36.33,0.04,-272.74,-272.74,-49,560,-925,22.7,2.2,-28.0,22.9,2.3,-27.6,5.73,2.28,-27.6,27.7
2012-03-23 01:25:00,0.0,1.9029,0.0010,400.27,0.20,61.3,32.1,138.11,28.43,24.60,36.32,0.04,-272.73,-272.74,-50,560,-925,22.7,2.2,-28.0,22.9,2.3,-27.5,5.73,2.47,-27.5,27.8
2012-03-23 01:26:00,0.0,1.9025,0.0009,400.17,0.20,63.0,31.5,138.11,28.44,24.61,36.33,0.04,-272.73,-272.73,-49,560,-925,22.8,2.2,-28.0,22.9,2.3,-27.5,5.73,2.25,-27.5,27.9
2012-03-23 01:27:00,0.0,1.9030,0.0010,400.26,0.20,64.4,38.5,138.11,28.45,24.61,36.32,0.04,-272.74,-272.74,-50,560,-925,22.8,2.2,-28.0,22.9,2.3,-27.5,5.73,2.48,-27.4,27.9
2012-03-23 01:28:00,0.0,1.9037,0.0009,400.27,0.22,68.0,35.1,138.10,28.46,24.61,36.32,0.04,-272.74,-272.74,-49,561,-925,22.9,2.2,-27.9,22.9,2.3,-27.5,5.73,2.25,-27.4,27.9
2012-03-23 01:29:00,0.0,1.9035,0.0008,400.25,0.18,75.3,29.3,138.11,28.47,24.61,36.32,0.04,-272.73,-272.73,-49,560,-925,22.9,2.2,-27.9,23.0,2.3,-27.5,5.73,2.47,-27.4,27.9
2012-03-23 01:30:00,0.0,1.9040,0.0009,400.16,0.19,71.8,34.2,138.11,28.48,24.61,36.33,0.04,-272.73,-272.74,-50,560,-925,22.9,2.2,-27.9,23.0,2.3,-27.5,5.73,2.27,-27.3,27.9
2012-03-23 01:31:00,0.0,1.9042,0.0009,400.22,0.21,80.3,30.5,138.10,28.49,24.61,36.33,0.04,-272.74,-272.74,-49,561,-925,22.9,2.2,-27.9,23.0,2.3,-27.4,5.73,2.46,-27.3,27.9
2012-03-23 01:32:00,0.0,1.9043,0.0011,400.23,0.19,82.7,30.6,138.10,28.50,24.61,36.33,0.04,-272.73,-272.73,-50,561,-925,23.0,2.2,-27.9,23.1,2.3,-27.4,5.73,2.28,-27.3,28.0
2012-03-23 01:33:00,0.0,1.9047,0.0011,400.25,0.22,83.6,35.3,138.10,28.51,24.60,36.33,0.04,-272.74,-272.73,-49,561,-925,23.0,2.2,-27.9,23.1,2.3,-27.4,5.73,2.44,-27.2,28.0
2012-03-23 01:34:00,0.0,1.9044,0.0007,400.22,0.20,92.0,33.6,138.10,28.52,24.61,36.33,0.04,-272.74,-272.74,-50,561,-925,23.0,2.2,-27.8,23.1,2.3,-27.5,5.73,2.29,-27.2,28.1
2012-03-23 01:35:00,0.0,1.9048,0.0010,400.26,0.19,98.5,33.7,138.10,28.54,24.61,36.33,0.04,-272.73,-272.73,-49,561,-925,23.0,2.2,-27.9,23.1,2.3,-27.5,5.73,2.44,-27.2,28.1
2012-03-23 01:36:00,0.0,1.9048,0.0010,400.27,0.20,94.8,37.9,138.10,28.55,24.61,36.33,0.04,-272.73,-272.74,-49,561,-925,23.1,2.2,-27.9,23.2,2.3,-27.5,5.73,2.28,-27.1,28.2
2012-03-23 01:37:00,0.0,1.9049,0.0008,400.33,0.21,92.8,32.8,138.10,28.56,24.61,36.32,0.04,-272.74,-272.74,-50,561,-925,23.1,2.2,-28.0,23.2,2.2,-27.5,5.73,2.45,-27.1,28.2
2012-03-23 01:38:00,0.0,1.9048,0.0009,400.19,0.18,97.4,32.4,138.10,28.57,24.61,36.33,0.04,-272.74,-272.73,-49,562,-925,23.1,2.2,-27.9,23.2,2.2,-27.6,5.73,2.36,-27.1,27.5
2012-03-23 01:39:00,0.0,1.9045,0.0010,400.25,0.18,86.6,35.7,138.11,28.58,24.61,36.33,0.04,-272.73,-272.74,-50,562,-925,23.1,2.2,-27.9,23.2,2.3,-27.5,5.73,2.30,-27.3,27.0
2012-03-23 01:40:00,0.0,1.9043,0.0009,400.26,0.20,72.3,36.1,138.11,28.57,24.61,36.33,0.04,-272.74,-272.74,-50,562,-926,23.1,2.2,-27.9,23.1,2.3,-27.5,5.73,2.34,-27.4,26.7
2012-03-23 01:41:00,0.0,1.9035,0.0012,400.34,0.22,50.7,30.9,138.12,28.57,24.61,36.32,0.04,-272.73,-272.73,-50,562,-926,23.0,2.2,-28.0,23.0,2.2,-27.6,5.73,2.37,-27.4,26.4
2012-03-23 01:42:00,0.0,1.9024,0.0009,400.20,0.17,44.0,31.2,138.13,28.55,24.61,36.33,0.04,-272.73,-272.73,-50,562,-926,22.9,2.2,-27.9,23.0,2.3,-27.5,5.73,2.37,-27.8,26.0
2012-03-23 01:43:00,0.0,1.9020,0.0010,400.31,0.19,28.6,26.7,138.13,28.53,24.61,36.32,0.04,-272.74,-272.73,-50,562,-926,22.9,2.2,-27.9,22.9,2.3,-27.5,5.73,2.37,-27.9,25.6
2012-03-23 01:44:00,0.0,1.9018,0.0009,400.19,0.21,10.7,20.7,138.14,28.51,24.61,36.32,0.04,-272.74,-272.74,-50,562,-926,22.9,2.2,-28.0,22.9,2.3,-27.6,5.73,2.38,-28.1,25.5
2012-03-23 01:45:00,0.0,1.9016,0.0010,400.28,0.21,13.1,21.9,138.14,28.48,24.61,36.32,0.04,-272.74,-272.73,-50,561,-926,22.8,2.2,-28.0,22.8,2.3,-27.6,5.73,2.40,-28.2,25.4
2012-03-23 01:46:00,0.0,1.9012,0.0009,400.17,0.19,3.3,10.5,138.15,28.46,24.61,36.32,0.04,-272.73,-272.73,-50,561,-925,22.7,2.2,-28.0,22.7,2.3,-27.6,5.73,2.40,-28.4,25.3
2012-03-23 01:47:00,0.0,1.9011,0.0009,400.25,0.20,1.8,8.6,138.15,28.42,24.61,36.32,0.04,-272.73,-272.74,-50,561,-926,22.7,2.2,-28.0,22.7,2.3,-27.7,5.73,2.46,-28.5,25.7
2012-03-23 01:48:00,0.0,1.9010,0.0009,400.21,0.21,3.9,14.0,138.14,28.40,24.61,36.32,0.04,-272.73,-272.74,-51,560,-926,22.7,2.2,-28.0,22.6,2.3,-27.7,5.73,2.30,-28.4,26.2
2012-03-23 01:49:00,0.0,1.9008,0.0009,400.15,0.22,1.4,7.8,138.14,28.38,24.61,36.32,0.04,-272.73,-272.74,-50,560,-925,22.7,2.2,-27.9,22.7,2.3,-27.6,5.73,2.40,-28.4,26.5
2012-03-23 01:50:00,0.0,1.9011,0.0008,400.14,0.19,5.8,10.8,138.14,28.37,24.61,36.32,0.04,-272.74,-272.74,-50,560,-925,22.7,2.2,-27.9,22.7,2.3,-27.7,5.73,2.35,-28.3,26.8
2012-03-23 01:51:00,0.0,1.9010,0.0007,399.96,0.20,4.2,12.0,138.13,28.36,24.61,36.32,0.04,-272.74,-272.74,-50,560,-925,22.7,2.2,-27.9,22.7,2.3,-27.6,5.73,2.43,-28.2,26.9
2012-03-23 01:52:00,0.0,1.9011,0.0010,400.03,0.22,11.1,18.5,138.13,28.36,24.60,36.31,0.04,-272.73,-272.73,-50,560,-925,22.7,2.2,-27.9,22.7,2.3,-27.6,5.73,2.28,-28.1,27.1
2012-03-23 01:53:00,0.0,1.9007,0.0008,399.97,0.25,14.0,23.6,138.13,28.36,24.61,36.32,0.04,-272.73,-272.73,-50,560,-925,22.7,2.2,-27.9,22.8,2.3,-27.6,5.73,2.47,-28.0,27.2
2012-03-23 01:54:00,0.0,1.9010,0.0009,400.00,0.20,24.0,23.4,138.12,28.36,24.61,36.32,0.04,-272.74,-272.73,-50,560,-925,22.7,2.2,-28.0,22.8,2.3,-27.6,5.73,2.27,-27.9,27.3
2012-03-23 01:55:00,0.0,1.9010,0.0011,399.96,0.19,26.2,25.6,138.12,28.36,24.60,36.32,0.04,-272.74,-272.74,-50,560,-925,22.7,2.2,-28.0,22.8,2.3,-27.6,5.73,2.46,-27.9,27.3
2012-03-23 01:56:00,0.0,1.9011,0.0010,399.94,0.22,30.8,24.0,138.12,28.37,24.61,36.32,0.04,-272.73,-272.73,-50,560,-925,22.7,2.2,-28.0,22.8,2.3,-27.6,5.73,2.32,-27.8,27.4
2012-03-23 01:57:00,0.0,1.9012,0.0009,400.06,0.21,32.7,24.2,138.12,28.38,24.61,36.32,0.04,-272.73,-272.73,-50,560,-925,22.7,2.2,-28.0,22.8,2.3,-27.5,5.73,2.38,-27.7,27.5
2012-03-23 01:58:00,0.0,1.9015,0.0010,399.99,0.18,33.3,29.4,138.12,28.39,24.60,36.32,0.04,-272.74,-272.74,-50,560,-925,22.8,2.2,-28.0,22.9,2.3,-27.5,5.73,2.41,-27.7,27.5
2012-03-23 01:59:00,0.0,1.9015,0.0010,400.07,0.19,44.0,25.6,138.11,28.40,24.61,36.32,0.04,-272.73,-272.74,-50,560,-925,22.8,2.2,-28.0,22.9,2.3,-27.5,5.73,2.30,-27.6,27.6
2012-03-23 02:00:00,0.0,1.9020,0.0008,400.07,0.19,54.4,31.7,138.11,28.41,24.61,36.33,0.04,-272.73,-272.74,-50,560,-925,22.8,2.2,-28.0,22.9,2.3,-27.5,5.73,2.47,-27.6,27.6
2012-03-23 02:01:00,0.0,1.9024,0.0013,400.11,0.19,50.0,32.5,138.11,28.42,24.61,36.32,0.04,-272.74,-272.74,-49,560,-925,22.8,2.2,-27.9,22.9,2.3,-27.5,5.73,2.26,-27.5,27.7
2012-03-23 02:02:00,0.0,1.9023,0.0009,400.09,0.22,58.2,36.1,138.11,28.44,24.61,36.33,0.04,-272.74,-272.74,-50,560,-925,22.9,2.2,-27.9,22.9,2.3,-27.5,5.73,2.48,-27.5,27.7
2012-03-23 02:03:00,0.0,1.9026,0.0010,400.20,0.20,74.9,38.5,138.11,28.45,24.61,36.32,0.04,-272.73,-272.73,-50,560,-925,22.9,2.2,-27.9,23.0,2.3,-27.4,5.73,2.26,-27.4,27.8
2012-03-23 02:04:00,0.0,1.9035,0.0011,400.16,0.24,61.3,31.6,138.11,28.46,24.61,36.33,0.04,-272.73,-272.74,-49,560,-925,22.9,2.2,-27.9,23.0,2.3,-27.5,5.73,2.46,-27.4,27.8
2012-03-23 02:05:00,0.0,1.9032,0.0010,400.22,0.17,71.4,33.4,138.11,28.47,24.61,36.33,0.04,-272.73,-272.73,-50,560,-925,22.9,2.2,-27.9,23.0,2.3,-27.4,5.73,2.29,-27.4,27.9
2012-03-23 02:06:00,0.0,1.9036,0.0009,400.29,0.20,70.6,34.6,138.10,28.49,24.61,36.33,0.04,-272.73,-272.73,-49,561,-925,22.9,2.2,-27.9,23.1,2.3,-27.5,5.73,2.43,-27.3,27.9
2012-03-23 02:07:00,0.0,1.9038,0.0009,400.29,0.15,85.4,31.3,138.10,28.50,24.61,36.33,0.04,-272.73,-272.73,-50,561,-925,23.0,2.2,-27.9,23.1,2.3,-27.5,5.73,2.33,-27.3,28.0
2012-03-23 02:08:00,0.0,1.9041,0.0009,400.31,0.19,84.3,34.0,138.10,28.51,24.61,36.33,0.04,-272.74,-272.73,-50,561,-925,23.0,2.2,-27.9,23.1,2.3,-27.5,5.73,2.39,-27.2,28.1
2012-03-23 02:09:00,0.0,1.9044,0.0008,400.43,0.23,89.6,31.7,138.10,28.52,24.61,36.32,0.04,-272.74,-272.73,-50,560,-925,23.0,2.2,-28.0,23.1,2.3,-27.5,5.73,2.35,-27.2,28.1
2012-03-23 02:10:00,0.0,1.9042,0.0007,400.39,0.18,87.1,30.9,138.10,28.53,24.61,36.33,0.04,-272.73,-272.74,-50,561,-925,23.1,2.2,-28.0,23.1,2.3,-27.5,5.73,2.37,-27.1,28.2
2012-03-23 02:11:00,0.0,1.9047,0.0008,400.41,0.19,88.0,38.1,138.10,28.54,24.61,36.32,0.04,-272.74,-272.74,-49,561,-925,23.1,2.2,-27.9,23.2,2.3,-27.5,5.73,2.37,-27.1,28.2
2012-03-23 02:12:00,0.0,1.9047,0.0009,400.34,0.18,96.0,29.7,138.10,28.56,24.61,36.33,0.04,-272.73,-272.73,-50,561,-925,23.1,2.2,-27.9,23.2,2.2,-27.5,5.73,2.34,-27.1,28.0
2012-03-23 02:13:00,0.0,1.9046,0.0012,400.33,0.21,92.8,27.2,138.10,28.57,24.61,36.33,0.04,-272.73,-272.73,-50,562,-926,23.1,2.2,-27.9,23.2,2.2,-27.6,5.73,2.46,-27.1,27.3
2012-03-23 02:14:00,0.0,1.9040,0.0010,400.16,0.18,85.5,31.7,138.11,28.57,24.61,36.33,0.04,-272.73,-272.74,-50,562,-925,23.1,2.2,-27.9,23.2,2.3,-27.5,5.73,2.37,-27.3,26.7
2012-03-23 02:15:00,0.0,1.9033,0.0009,400.27,0.21,71.7,32.4,138.11,28.56,24.61,36.33,0.04,-272.74,-272.73,-50,562,-926,23.1,2.2,-28.0,23.1,2.3,-27.5,5.73,2.35,-27.5,26.3
2012-03-23 02:16:00,0.0,1.9026,0.0008,400.28,0.22,59.9,32.1,138.12,28.56,24.61,36.33,0.04,-272.73,-272.73,-50,562,-926,23.1,2.2,-27.8,23.1,2.3,-27.4,5.73,2.36,-27.6,26.0
2012-03-23 02:17:00,0.0,1.9024,0.0010,400.28,0.19,36.4,33.2,138.13,28.54,24.61,36.32,0.04,-272.74,-272.73,-50,562,-926,23.0,2.2,-27.9,23.0,2.3,-27.5,5.73,2.37,-27.8,25.9